Time (yr/mo/day/hr) Wind Speed at 50 metres (Glencore Tower; km/hr) Wind Direction at 50 metres (Glencore Tower; degrees) Temperature (oC) SO2 Dispersion Conditions Mixing Height (m)
2019 10 19 13 12 176 11 Slightly unstable 1313
2019 10 19 14 14 179 11 Slightly unstable 1367
2019 10 19 15 15 180 11 Slightly unstable 1348
2019 10 19 16 14 172 10 Slightly unstable 709
2019 10 19 17 12 175 9 Neutral 1078
2019 10 19 18 13 176 8 Slightly stable 478
2019 10 19 19 11 170 9 Stable 375
2019 10 19 20 11 161 8 Stable 363
2019 10 19 21 12 157 7 Slightly stable 471
2019 10 19 22 13 154 7 Slightly stable 529
2019 10 19 23 14 156 8 Slightly stable 651
2019 10 20 00 15 157 7 Slightly stable 669
2019 10 20 01 14 159 7 Slightly stable 597
2019 10 20 02 13 158 7 Slightly stable 565
2019 10 20 03 13 151 7 Slightly stable 501
2019 10 20 04 13 147 7 Slightly stable 507
2019 10 20 05 14 141 7 Slightly stable 595
2019 10 20 06 15 146 7 Slightly stable 679
2019 10 20 07 14 151 7 Slightly stable 574
2019 10 20 08 10 156 7 Neutral 301
2019 10 20 09 9 144 7 Slightly unstable 540
2019 10 20 10 10 153 8 Slightly unstable 618
2019 10 20 11 10 164 9 Slightly unstable 601
2019 10 20 12 10 162 10 Slightly unstable 643
2019 10 20 13 10 147 11 Slightly unstable 698